GW2465 Weather Reports


time (UTC)temp
F
wind
direction
speed
knots
gust
knots
rain 1hr
in
rain 24hr
in
rain mn
in
humidity
%
barometer
mb
20260507030044 46 44 1.7 7.0 0.00 0.37 0.37 88 1010.9
20260507024547 46 52 2.6 6.1 0.00 0.37 0.37 89 1010.6
20260507023043 46 15 2.6 7.0 0.00 0.37 0.37 89 1011.0
20260507021554 46 53 3.5 7.8 0.00 0.37 0.37 90 1011.2
20260507020039 46 68 2.6 7.0 0.00 0.37 0.37 90 1011.3
20260507014540 46 35 2.6 7.8 0.00 0.37 0.37 90 1011.7
20260507013047 46 32 2.6 7.8 0.00 0.37 0.37 90 1011.5
20260507011547 46 25 2.6 9.6 0.00 0.37 0.37 89 1011.5
20260507010045 47 64 3.5 8.7 0.00 0.37 0.37 90 1011.2
20260507004550 47 44 4.3 10.4 0.00 0.37 0.37 91 1010.9
20260507003038 47 11 3.5 8.7 0.00 0.37 0.37 91 1010.6
20260507001544 47 344 3.5 8.7 0.00 0.37 0.37 91 1010.4
20260507000046 48 48 5.2 9.6 0.00 0.37 0.37 91 1010.1
20260506234605 48 12 4.3 12.2 0.00 0.37 0.37 91 1009.6
20260506233042 49 36 7.0 10.4 0.00 0.37 0.37 92 1009.5
20260506231546 51 53 3.5 8.7 0.00 0.37 0.37 92 1009.4
20260506230042 52 50 4.3 12.2 0.00 0.37 0.37 90 1009.3
20260506224547 57 13 7.8 13.9 0.00 0.37 0.37 86 1008.9
20260506223047 59 267 2.6 8.7 0.00 0.37 0.37 88 1008.2
20260506221543 59 289 2.6 7.8 0.00 0.37 0.37 90 1008.0
20260506220043 59 325 0.9 3.5 0.00 0.37 0.37 90 1007.8
20260506214548 60 264 0.9 7.0 0.00 0.37 0.37 88 1007.8
20260506213045 60 264 1.7 9.6 0.00 0.37 0.37 87 1007.5
20260506211545 61 261 0.9 7.0 0.00 0.37 0.37 87 1007.3
20260506210045 60 360 3.5 8.7 0.00 0.37 0.37 88 1007.2
20260506204557 60 271 1.7 5.2 0.00 0.37 0.37 89 1007.2
20260506203042 59 233 1.7 5.2 0.00 0.37 0.37 91 1007.1
20260506201547 59 350 1.7 4.3 0.00 0.37 0.37 92 1007.2
20260506200106 59 252 2.6 7.0 0.00 0.37 0.37 92 1007.1
20260506194558 58 269 2.6 8.7 0.00 0.37 0.37 92 1007.3
20260506193043 58 221 2.6 6.1 0.00 0.37 0.37 92 1007.2
20260506191541 58 211 3.5 7.8 0.00 0.37 0.37 92 1007.3
20260506190047 58 229 2.6 7.0 0.00 0.37 0.37 94 1007.3
20260506184550 58 200 1.7 5.2 0.00 0.37 0.37 95 1007.4
20260506183101 57 199 2.6 5.2 0.01 0.37 0.37 95 1007.5
20260506181554 57 197 3.5 7.8 0.02 0.37 0.37 94 1007.7
20260506180048 57 172 2.6 6.1 0.03 0.37 0.37 95 1007.6
20260506174546 57 215 3.5 7.0 0.04 0.37 0.37 95 1007.8
20260506173055 57 207 1.7 5.2 0.03 0.36 0.36 94 1007.7
20260506171550 57 202 2.6 7.8 0.04 0.35 0.35 94 1007.7
20260506170046 57 182 2.6 6.1 0.03 0.34 0.34 94 1008.0
20260506164551 57 210 3.5 6.1 0.03 0.33 0.33 93 1007.7
20260506163052 57 194 3.5 7.0 0.04 0.32 0.32 93 1007.8
20260506161602 57 217 3.5 6.1 0.05 0.31 0.31 93 1007.8
20260506160046 57 203 2.6 8.7 0.10 0.31 0.31 93 1007.7
20260506154555 57 227 2.6 6.1 0.13 0.30 0.30 93 1007.8
20260506153045 56 55 2.6 6.1 0.14 0.28 0.28 93 1007.9
20260506151600 57 93 1.7 5.2 0.13 0.26 0.26 93 1008.1
20260506150052 57 207 3.5 8.7 0.10 0.21 0.21 92 1008.3
20260506144541 57 194 1.7 6.1 0.07 0.17 0.17 92 1008.0
20260506143054 57 180 2.6 7.8 0.05 0.14 0.14 92 1008.1
20260506141547 56 205 1.7 8.7 0.07 0.13 0.13 92 1008.0
20260506140056 56 196 3.5 7.8 0.07 0.11 0.11 91 1008.3
20260506134544 56 177 2.6 6.1 0.08 0.10 0.10 91 1008.3
20260506133051 56 205 2.6 6.1 0.08 0.09 0.09 91 1008.7
20260506131541 57 164 1.7 5.2 0.06 0.06 0.06 89 1008.8
20260506124546 58 196 2.6 6.1 0.02 0.02 0.02 86 1009.1
20260506123044 59 227 2.6 5.2 0.01 0.01 0.01 82 1009.1
20260506121551 59 187 2.6 7.0 0.00 0.00 0.00 80 1008.8
20260506120043 59 188 1.7 5.2 0.00 0.00 0.00 79 1008.8
20260506114548 59 189 1.7 5.2 0.00 0.00 0.00 77 1008.7
20260506113046 60 230 3.5 7.8 0.00 0.00 0.00 76 1008.6
20260506111543 60 195 2.6 6.1 0.00 0.00 0.00 75 1008.5
20260506110050 60 194 2.6 5.2 0.00 0.00 0.00 73 1008.4
20260506104541 60 200 2.6 5.2 0.00 0.00 0.00 72 1008.2
20260506103046 60 193 1.7 4.3 0.00 0.00 0.00 71 1007.9
20260506101554 60 175 1.7 5.2 0.00 0.00 0.00 69 1007.9
20260506100046 61 189 2.6 6.1 0.00 0.00 0.00 66 1008.0
20260506094552 62 180 2.6 7.0 0.00 0.00 0.00 65 1008.0
20260506093047 62 174 2.6 5.2 0.00 0.00 0.00 64 1008.1
20260506091541 62 219 2.6 5.2 0.00 0.00 0.00 62 1008.3
20260506090047 63 187 2.6 7.0 0.00 0.00 0.00 61 1008.2
20260506084542 63 202 2.6 5.2 0.00 0.00 0.00 60 1008.3
20260506083045 63 206 1.7 7.8 0.00 0.00 0.00 58 1008.5
20260506081542 64 221 1.7 7.0 0.00 0.00 0.00 57 1008.6
20260506073049 64 161 3.5 8.7 0.00 0.00 0.00 54 1008.5
20260506071600 64 168 2.6 7.8 0.00 0.00 0.00 53 1008.7
20260506061546 65 167 4.3 9.6 0.00 0.00 0.00 50 1009.2
20260506044544 64 200 1.7 5.2 0.00 0.00 0.00 49 1009.7
20260506043041 64 180 1.7 5.2 0.00 0.00 0.00 48 1009.8
20260506041557 65 179 1.7 4.3 0.00 0.00 0.00 47 1009.9
20260506040052 65 215 1.7 4.3 0.00 0.00 0.00 47 1009.9
20260506034547 65 205 1.7 4.3 0.00 0.00 0.00 47 1010.1
20260506033044 65 194 1.7 5.2 0.00 0.00 0.00 47 1009.9
20260506031547 66 190 1.7 6.1 0.00 0.00 0.00 47 1009.9